Temperature
16 16 16 16 16 16 16 16 16 15 15 15 15 15 15 15 15 15 15 15 15 15 14 14 14 14 14 14 14 14 14 14 13 13 13 12 12 12 12 12 12 12 12
16 16 16 16 16 16 16 16 15 15 15 15 15 15 15 15 15 15 15 15 14 14 14 14 14 14 14 14 14 14 14 13 13 13 12 12 12 12 12 12 12 12 12
17 16 16 16 16 16 16 16 16 15 15 15 15 15 15 15 15 15 15 15 14 14 14 14 14 14 14 14 14 14 13 13 13 13 12 12 12 12 12 12 11 11 11
17 16 16 16 16 16 16 16 15 15 15 15 15 15 15 15 15 15 14 14 14 14 14 14 14 14 14 14 14 13 13 13 13 13 12 12 12 12 11 11 11 11 11
17 16 16 16 16 16 16 15 15 15 15 15 15 15 15 15 15 15 14 14 14 14 14 14 14 14 14 14 13 13 13 13 12 12 12 12 12 12 11 11 11 11 11
17 16 16 16 16 16 15 15 15 15 15 15 15 15 15 15 15 15 14 14 14 14 14 14 14 14 13 13 13 13 13 13 12 12 12 12 12 12 11 11 11 11 11
17 16 16 16 16 16 15 15 15 15 15 15 15 15 15 15 15 14 14 14 14 14 14 13 13 13 13 13 13 13 13 13 12 12 12 12 12 12 11 11 11 11 10
17 16 16 16 16 16 15 15 15 15 15 15 15 15 15 15 14 14 14 14 14 13 13 13 13 13 13 13 13 13 13 12 12 12 12 12 12 11 11 11 11 10 10
16 16 16 16 16 15 15 15 15 15 15 15 15 15 15 14 14 14 14 14 13 13 13 13 13 13 13 12 12 12 12 12 12 12 12 11 11 11 11 11 10 10 10
16 16 16 16 15 15 15 15 15 14 14 14 14 14 14 14 14 14 14 14 13 13 13 13 13 13 12 12 12 12 12 12 12 12 11 11 11 11 11 10 10 10 9
16 16 15 15 15 15 15 15 14 14 14 14 14 14 14 14 14 13 13 13 13 13 13 13 13 12 12 12 12 12 12 11 11 11 11 11 11 11 10 10 10 9 9
16 15 15 15 15 15 14 14 14 14 14 14 14 14 13 13 13 13 13 13 12 12 12 12 12 12 12 12 12 11 11 11 11 10 10 10 10 10 10 10 9 9 9
15 15 15 14 14 14 14 14 14 14 13 13 13 13 13 13 13 13 13 12 12 12 12 12 12 12 12 11 11 11 11 11 10 10 10 10 9 9 9 9 9 9 9
15 15 14 14 14 14 14 14 14 13 13 13 13 13 13 13 13 13 13 12 12 12 12 12 11 11 11 11 11 10 10 10 10 9 9 9 9 9 9 9 8 8 8
14 14 14 14 14 13 13 13 13 13 13 13 13 12 12 12 12 12 12 12 12 12 11 11 11 11 11 10 10 10 10 9 9 9 9 9 8 8 8 8 8 8 7
14 14 14 13 13 13 13 13 13 13 12 12 12 12 12 12 12 12 12 11 11 11 11 11 10 10 10 10 9 9 9 9 9 8 8 8 8 8 7 7 7 7 7
14 13 13 13 13 13 13 12 12 12 12 12 12 12 11 11 11 11 11 11 11 11 10 10 10 9 9 9 9 8 8 8 8 8 7 7 7 7 7 7 6 6 6
13 13 13 13 12 12 12 12 12 12 12 11 11 11 11 11 11 11 10 10 10 10 10 9 9 9 9 8 8 8 8 8 7 7 7 7 7 6 6 6 6 6 5
12 12 12 12 12 12 12 12 12 11 11 11 11 11 11 10 10 10 10 10 10 10 9 9 9 9 8 8 8 8 8 8 7 7 7 6 6 6 6 6 5 5 5
12 12 12 12 12 11 11 11 11 11 11 11 10 10 10 10 10 10 10 9 9 9 9 9 9 8 8 8 8 8 8 7 7 7 6 6 6 6 5 5 5 5 5
11 11 11 11 11 11 11 11 11 10 10 10 10 10 10 10 10 9 9 9 9 9 9 8 8 8 8 8 8 7 7 7 7 6 6 6 6 5 5 5 5 5 4
11 11 11 11 11 10 10 10 10 10 10 10 9 9 9 9 9 9 9 9 8 8 8 8 8 8 8 7 7 7 7 7 6 6 6 6 5 5 5 5 4 4 4
10 10 10 10 10 10 10 10 9 9 9 9 9 9 9 9 8 8 8 8 8 8 8 8 7 7 7 7 7 7 6 6 6 6 5 5 5 5 4 4 4 4 3
10 10 10 9 9 9 9 9 9 9 9 8 8 8 8 8 8 8 8 8 8 8 8 7 7 7 7 7 6 6 6 6 6 5 5 5 4 4 4 4 3 3 3
9 9 9 9 9 9 9 9 8 8 8 8 8 8 8 8 8 8 8 7 7 7 7 7 7 7 6 6 6 6 6 5 5 5 5 4 4 4 3 3 3 3 2
9 8 8 8 8 8 8 8 8 8 8 7 7 7 7 7 7 7 7 7 7 7 7 7 6 6 6 6 6 5 5 5 5 4 4 4 4 3 3 3 3 2 2
Wind_Speed
4 3 3 3 2 2 3 3 3 3 3 3 4 3 3 3 3 3 2 1 2 1 1 2 2 2 2 1 2 2 2 2 2 0 1 1 2 3 4 4 4 5 5
5 4 4 4 3 3 3 3 3 3 4 3 4 4 3 3 3 3 2 1 1 1 1 2 2 2 2 1 1 1 1 1 2 1 0 1 1 2 3 2 3 3 4
5 5 5 4 4 3 3 3 3 3 3 3 4 4 3 3 3 3 3 2 1 1 1 1 1 2 2 1 1 1 1 1 2 2 1 0 0 1 1 1 2 2 2
6 5 4 4 4 4 3 2 2 2 3 3 3 3 4 3 2 2 2 2 1 1 1 1 2 2 2 1 1 1 1 1 1 1 1 1 1 1 1 1 0 1 1
6 5 4 4 4 4 3 2 2 1 2 3 2 3 3 3 2 2 1 1 1 1 1 1 2 4 5 3 2 1 1 1 1 0 1 1 1 0 1 1 1 1 1
6 6 5 4 4 4 4 3 2 2 2 3 2 3 3 2 3 4 1 0 0 1 1 1 2 3 3 3 3 2 2 1 1 1 1 1 2 1 1 1 1 0 2
6 6 6 5 5 5 4 3 3 3 2 2 3 3 3 3 4 3 2 1 1 0 1 1 0 2 3 3 2 1 0 1 2 2 1 2 2 2 1 1 1 1 3
6 6 6 6 5 5 4 4 4 3 3 2 3 3 4 3 4 3 1 0 1 0 1 2 1 1 1 1 1 1 0 1 2 2 2 2 1 1 1 2 2 2 2
5 6 6 6 6 5 5 4 4 3 3 3 3 4 4 4 5 4 2 0 0 1 1 1 2 2 3 4 1 0 0 1 0 1 2 2 2 2 1 0 1 1 2
4 5 5 6 6 6 5 4 3 3 3 3 3 3 4 5 6 5 3 1 1 0 0 1 2 2 2 2 1 0 1 1 1 1 1 2 1 2 2 2 2 1 2
4 4 4 5 5 6 5 4 3 3 3 3 3 3 3 4 6 6 4 1 1 1 1 1 1 1 0 1 1 1 3 2 2 2 1 1 1 0 0 0 0 1 2
5 4 4 4 4 4 5 4 4 3 3 3 3 2 2 3 5 5 5 3 2 1 0 1 1 1 0 1 0 1 2 2 1 1 1 2 2 2 1 1 1 2 1
4 4 4 4 4 4 4 4 3 3 2 2 2 2 2 2 3 6 6 4 2 1 1 1 1 1 1 0 1 2 1 1 1 1 2 2 2 1 0 1 0 1 1
4 4 4 4 4 4 3 3 3 3 3 3 3 3 2 2 3 3 3 2 1 1 0 0 1 1 1 1 1 2 2 1 1 2 2 2 1 1 1 1 1 2 2
4 4 4 4 4 4 3 2 3 2 3 3 2 3 3 3 3 4 4 3 2 2 2 1 1 0 1 2 2 2 2 1 2 2 1 1 1 1 2 1 1 2 2
3 3 2 3 4 4 4 3 2 3 3 3 3 3 2 3 5 6 5 4 3 4 3 1 2 2 2 2 2 2 2 2 2 1 2 2 2 2 2 2 2 2 3
2 2 2 2 3 3 4 4 3 1 1 1 2 2 3 3 4 6 5 4 4 4 2 2 2 2 2 2 2 2 2 2 2 2 2 2 2 2 2 2 2 2 3
1 2 2 2 2 2 3 3 3 4 2 1 1 2 3 4 4 5 5 4 2 2 2 2 3 2 2 2 2 2 2 2 2 2 2 2 2 3 3 3 3 3 3
1 1 1 1 1 2 2 2 2 3 3 2 2 1 3 3 4 4 5 2 2 2 3 3 2 2 2 2 2 2 2 2 2 2 2 2 3 3 3 3 3 4 4
2 3 2 1 2 2 2 2 2 2 3 3 3 3 3 3 2 3 3 3 3 3 3 3 3 3 2 2 2 2 2 2 2 2 3 3 3 3 3 4 3 3 3
1 3 3 1 1 1 1 2 2 3 3 3 2 3 6 4 4 4 5 4 4 4 4 3 3 2 2 2 2 2 2 2 2 3 3 3 3 3 3 3 3 3 2
1 2 2 2 1 1 1 2 2 2 3 3 2 3 5 4 3 4 4 4 4 3 3 2 3 2 2 2 2 2 2 3 3 3 3 2 2 2 2 2 3 2 2
2 2 2 2 1 2 2 2 2 2 2 2 2 3 4 4 3 3 4 4 3 2 2 2 2 2 2 2 3 3 3 3 3 2 2 2 2 2 2 2 3 3 3
2 2 2 2 1 1 2 2 2 2 2 2 2 3 3 3 3 3 3 3 2 2 2 2 3 3 3 2 3 4 4 4 3 3 3 3 2 2 2 2 3 3 3
2 2 2 2 2 2 2 2 2 2 2 2 2 2 2 3 3 3 3 2 2 3 3 3 3 3 4 4 3 4 4 4 4 3 3 3 3 3 3 3 3 3 3
2 2 2 2 2 3 3 3 2 2 3 2 2 2 3 3 3 3 3 3 3 3 3 3 3 3 4 4 5 5 5 5 5 5 3 2 3 3 2 2 3 3 3
Wind_Direction
169 162 151 154 159 151 151 152 151 150 148 150 146 140 140 140 130 116 133 134 107 115 112 100 85 75 68 58 58 41 38 84 118 142 105 134 122 112 120 133 132 126 116
167 161 159 164 170 164 164 169 169 160 163 168 154 148 153 154 139 138 139 112 113 121 107 107 122 107 86 59 74 59 57 86 122 139 59 74 114 154 150 144 128 120 126
165 164 171 169 160 162 165 162 168 162 164 167 152 152 147 140 138 144 146 151 167 179 167 146 134 125 137 123 122 109 85 88 106 129 192 221 219 167 108 94 115 129 151
161 162 167 161 156 156 145 148 163 172 158 149 143 149 148 145 128 130 141 160 187 177 122 85 68 80 89 85 98 89 98 87 91 116 178 221 212 209 121 146 277 253 207
157 157 160 155 149 141 137 141 136 145 137 134 130 122 119 116 109 104 123 159 131 119 113 108 97 89 80 78 79 63 72 87 89 133 214 222 224 165 216 218 233 259 260
161 158 155 152 145 142 149 146 139 120 109 111 118 117 114 112 103 91 56 316 174 156 139 133 137 127 117 106 90 81 105 152 209 231 242 225 245 228 219 229 216 257 285
157 153 153 154 149 146 146 141 145 142 131 136 143 135 134 118 114 93 48 12 334 273 128 121 203 162 157 165 171 172 15 287 222 212 238 238 234 250 236 284 273 262 249
158 154 153 151 148 149 151 155 157 154 158 170 159 151 139 134 132 115 64 291 285 238 182 181 170 122 82 89 161 137 222 290 257 216 208 238 231 225 180 213 231 262 281
160 161 157 156 154 153 156 163 167 171 177 180 165 158 154 156 154 141 118 232 282 296 44 57 90 95 64 38 70 166 240 283 358 173 186 196 218 255 231 252 272 270 285
158 161 158 162 162 164 168 170 176 178 178 176 173 176 169 158 165 165 166 191 228 295 61 73 93 107 82 44 32 214 231 253 298 335 327 296 271 276 264 194 212 236 267
147 149 160 156 163 167 168 170 171 169 171 182 180 179 170 158 168 172 170 191 223 218 214 151 106 127 180 304 267 222 237 259 248 250 259 275 287 283 359 95 132 195 224
147 152 159 161 164 162 159 168 169 163 171 183 177 176 180 161 163 178 183 210 284 275 218 113 120 136 44 338 321 263 280 310 281 259 257 259 252 249 234 151 121 100 147
147 155 160 159 151 145 148 156 157 154 166 187 185 187 185 159 165 174 190 208 246 302 15 82 118 141 129 76 266 274 303 303 279 277 269 266 264 247 142 101 133 164 278
150 155 155 151 144 143 147 153 158 173 183 194 201 201 193 172 157 164 182 196 196 182 263 62 126 200 272 238 267 267 258 248 237 243 258 270 298 309 291 279 269 261 267
160 155 161 160 157 155 150 160 172 178 182 184 197 195 190 192 182 161 162 176 180 176 144 138 167 207 238 250 250 251 249 252 263 271 274 283 285 284 281 287 285 289 267
169 166 162 160 161 163 160 146 106 146 149 157 170 175 177 168 154 149 148 148 149 149 135 169 220 230 236 239 241 248 246 244 245 256 262 265 267 267 273 284 280 274 274
169 153 145 156 172 175 176 171 167 133 95 143 178 172 166 157 151 155 156 148 147 147 154 204 222 230 238 242 245 249 255 254 246 241 251 259 265 267 263 264 270 277 274
174 145 143 162 176 186 190 186 178 174 180 202 206 182 174 163 162 165 150 124 136 167 208 227 237 237 238 241 242 246 255 263 261 251 250 253 256 263 263 260 261 264 270
144 132 150 168 181 198 189 179 179 182 181 173 139 145 169 154 150 159 151 161 190 213 229 241 246 249 253 250 250 244 238 242 248 251 252 255 257 264 267 263 257 259 265
166 162 166 183 189 194 184 172 175 179 184 184 183 174 150 144 163 180 192 210 218 227 231 236 238 242 244 243 245 246 251 250 245 248 252 250 249 255 263 264 258 255 255
167 163 163 175 189 180 178 175 181 186 188 189 194 179 169 184 194 197 202 212 219 226 228 231 235 238 237 240 240 243 243 250 254 253 250 247 245 259 263 258 256 252 247
182 165 166 173 186 185 194 200 193 192 192 189 185 177 176 190 203 210 214 214 220 227 231 225 225 226 223 227 227 234 242 252 255 258 259 256 253 260 266 263 259 258 248
188 167 166 173 183 193 202 203 194 196 200 199 191 184 192 209 213 216 221 221 216 220 222 228 229 235 239 219 210 215 235 247 250 249 248 250 250 254 266 268 258 255 251
189 179 181 181 187 197 196 207 208 201 198 200 205 207 204 211 216 222 228 229 231 225 216 219 228 232 240 229 224 226 232 237 229 221 229 238 243 248 254 259 256 247 243
199 192 195 191 197 203 201 209 217 208 205 209 214 221 222 217 222 227 230 238 238 238 240 226 221 220 222 224 226 232 233 232 234 229 215 224 233 238 247 248 250 249 253
203 199 202 202 203 204 206 211 217 216 213 217 220 228 229 229 229 224 223 229 237 248 252 233 223 225 225 225 227 228 227 228 231 231 214 219 232 238 244 244 246 241 245
Height
1534 1535 1536 1537 1539 1540 1541 1543 1544 1545 1546 1547 1548 1549 1550 1550 1551 1552 1552 1553 1554 1554 1554 1555 1555 1555 1555 1555 1555 1555 1555 1555 1555 1556 1556 1556 1555 1555 1554 1553 1552 1551 1550
1533 1534 1535 1537 1538 1539 1540 1542 1543 1544 1545 1546 1547 1548 1549 1550 1551 1551 1552 1553 1553 1554 1554 1555 1555 1555 1555 1555 1555 1555 1555 1555 1555 1555 1555 1555 1555 1554 1553 1553 1552 1551 1550
1531 1533 1534 1535 1537 1538 1539 1541 1542 1544 1545 1546 1547 1547 1548 1549 1550 1551 1552 1552 1553 1553 1554 1554 1554 1554 1554 1554 1554 1554 1554 1554 1554 1554 1554 1554 1554 1553 1553 1552 1551 1550 1549
1530 1531 1533 1534 1535 1537 1538 1539 1541 1542 1544 1545 1546 1547 1547 1548 1549 1550 1551 1551 1552 1552 1553 1553 1553 1553 1553 1553 1553 1553 1553 1553 1553 1553 1553 1553 1553 1552 1551 1551 1550 1549 1548
1528 1529 1531 1533 1534 1535 1536 1538 1539 1541 1542 1543 1544 1545 1546 1547 1548 1549 1549 1550 1551 1551 1552 1552 1552 1552 1552 1552 1552 1552 1552 1552 1552 1552 1552 1551 1551 1550 1550 1549 1548 1547 1546
1525 1527 1529 1531 1532 1533 1534 1536 1537 1539 1540 1541 1542 1543 1544 1545 1546 1547 1548 1549 1549 1550 1550 1550 1550 1551 1551 1550 1550 1550 1551 1550 1550 1550 1550 1549 1549 1548 1548 1547 1546 1545 1544
1523 1525 1527 1529 1530 1531 1533 1534 1535 1537 1538 1539 1540 1542 1542 1543 1545 1545 1546 1547 1547 1548 1548 1549 1549 1549 1549 1549 1548 1549 1549 1549 1549 1549 1547 1547 1547 1546 1546 1545 1544 1543 1542
1521 1523 1525 1526 1528 1529 1531 1532 1533 1535 1536 1537 1539 1540 1541 1542 1543 1543 1544 1545 1545 1546 1546 1547 1547 1547 1547 1547 1546 1546 1546 1546 1546 1546 1545 1545 1544 1544 1543 1542 1541 1540 1539
1519 1521 1522 1524 1525 1527 1529 1530 1532 1533 1534 1536 1537 1538 1539 1540 1541 1542 1542 1543 1543 1544 1544 1545 1545 1545 1545 1544 1544 1544 1543 1543 1543 1543 1542 1542 1541 1541 1540 1539 1538 1537 1535
1517 1518 1520 1522 1523 1525 1526 1528 1530 1531 1532 1534 1535 1536 1537 1538 1539 1539 1540 1541 1541 1542 1542 1542 1543 1543 1542 1542 1541 1541 1540 1540 1540 1540 1539 1539 1538 1538 1537 1536 1535 1534 1532
1515 1517 1518 1520 1521 1522 1524 1526 1527 1529 1530 1532 1533 1534 1535 1536 1536 1537 1538 1538 1539 1539 1539 1540 1540 1540 1540 1539 1539 1538 1538 1537 1537 1536 1536 1535 1535 1534 1533 1532 1532 1531 1529
1513 1514 1516 1517 1519 1520 1522 1523 1525 1526 1528 1529 1530 1531 1532 1533 1534 1534 1535 1536 1536 1536 1536 1537 1537 1537 1537 1536 1536 1535 1535 1534 1534 1533 1532 1531 1531 1530 1530 1529 1528 1527 1526
1510 1512 1514 1515 1517 1518 1519 1521 1522 1524 1525 1526 1527 1528 1529 1530 1530 1531 1532 1533 1533 1533 1533 1534 1534 1534 1533 1533 1533 1532 1531 1531 1530 1529 1528 1528 1527 1527 1526 1525 1524 1523 1522
1508 1510 1511 1513 1514 1515 1517 1518 1519 1521 1522 1523 1524 1525 1526 1526 1527 1528 1528 1529 1529 1530 1530 1530 1530 1530 1530 1529 1529 1528 1528 1527 1527 1526 1525 1524 1524 1523 1522 1521 1520 1518 1517
1506 1507 1509 1510 1511 1513 1514 1515 1516 1518 1519 1520 1521 1522 1522 1523 1523 1524 1525 1525 1526 1526 1526 1526 1526 1526 1525 1525 1525 1524 1524 1523 1523 1522 1521 1520 1519 1518 1517 1516 1516 1514 1513
1503 1505 1506 1508 1509 1510 1511 1513 1514 1515 1517 1518 1519 1519 1520 1521 1521 1521 1522 1522 1523 1523 1523 1522 1522 1522 1522 1521 1521 1520 1520 1519 1519 1518 1517 1517 1516 1514 1513 1512 1511 1510 1509
1501 1502 1503 1505 1506 1507 1509 1510 1511 1513 1514 1514 1515 1516 1517 1517 1518 1518 1519 1519 1519 1519 1519 1519 1519 1519 1518 1518 1518 1517 1516 1516 1515 1514 1513 1512 1512 1510 1509 1508 1507 1506 1505
1499 1500 1501 1502 1503 1504 1506 1507 1508 1509 1510 1510 1512 1512 1513 1514 1514 1515 1515 1515 1514 1515 1515 1515 1515 1515 1515 1514 1514 1513 1513 1512 1511 1510 1509 1508 1507 1506 1505 1504 1503 1502 1500
1496 1497 1498 1499 1500 1501 1503 1504 1505 1506 1506 1507 1508 1509 1509 1510 1510 1511 1511 1510 1510 1510 1511 1511 1511 1511 1511 1510 1510 1509 1508 1508 1507 1506 1505 1504 1503 1502 1501 1500 1498 1497 1496
1493 1494 1495 1496 1497 1498 1499 1500 1501 1502 1503 1503 1504 1504 1505 1506 1506 1506 1506 1506 1506 1507 1507 1507 1507 1507 1507 1506 1505 1505 1504 1503 1502 1501 1500 1499 1498 1497 1496 1495 1493 1492 1491
1489 1490 1492 1493 1494 1495 1496 1497 1498 1499 1499 1500 1500 1501 1501 1501 1502 1502 1502 1502 1502 1502 1503 1503 1502 1502 1502 1501 1501 1500 1499 1498 1497 1496 1495 1494 1493 1492 1491 1490 1488 1487 1485
1485 1486 1488 1489 1490 1491 1492 1493 1494 1495 1495 1496 1496 1497 1497 1497 1498 1498 1498 1498 1499 1499 1498 1498 1498 1498 1497 1497 1496 1495 1494 1493 1492 1491 1490 1489 1488 1487 1486 1484 1483 1481 1480
1481 1482 1484 1485 1486 1487 1488 1489 1490 1490 1491 1492 1492 1493 1493 1493 1493 1494 1494 1494 1494 1494 1494 1494 1493 1493 1492 1492 1491 1490 1489 1488 1487 1486 1485 1484 1483 1481 1480 1479 1477 1476 1475
1477 1478 1479 1480 1482 1483 1483 1484 1485 1486 1486 1487 1488 1488 1488 1488 1489 1489 1489 1489 1489 1489 1489 1488 1488 1488 1487 1486 1485 1485 1484 1483 1482 1481 1480 1479 1478 1476 1475 1473 1472 1471 1470
1472 1474 1475 1476 1477 1478 1479 1480 1481 1481 1482 1483 1483 1483 1484 1484 1484 1484 1484 1484 1484 1484 1484 1483 1483 1482 1481 1480 1480 1479 1478 1478 1477 1476 1475 1473 1472 1471 1469 1468 1467 1465 1465
1468 1469 1471 1472 1473 1473 1474 1475 1476 1476 1477 1477 1478 1478 1479 1479 1479 1479 1479 1479 1479 1478 1478 1478 1477 1476 1476 1475 1474 1473 1473 1472 1471 1470 1469 1468 1466 1465 1464 1462 1461 1460 1459